#ZEITBEREICH: 17.05.2023 bis 17.05.2024
Datum;Zeit;BORG NO AM1H [�g/m�];BORG NO2 AM1H [�g/m�];BORG O3 AM1H [�g/m�];BORG PM10F GM24H [�g/m�]
17.05.2023;01:00;<7;<10;47;<10
17.05.2023;02:00;<7;<10;48;<10
17.05.2023;03:00;<7;<10;50;<10
17.05.2023;04:00;<7;<10;49;<10
17.05.2023;05:00;<7;<10;48;<10
17.05.2023;06:00;<7;<10;36;<10
17.05.2023;07:00;<7;<10;50;<10
17.05.2023;08:00;<7;<10;64;<10
17.05.2023;09:00;<7;<10;68;<10
17.05.2023;10:00;<7;<10;69;10
17.05.2023;11:00;<7;<10;71;10
17.05.2023;12:00;<7;<10;73;10
17.05.2023;13:00;<7;<10;77;10
17.05.2023;14:00;<7;<10;82;11
17.05.2023;15:00;<7;<10;85;11
17.05.2023;16:00;<7;<10;91;11
17.05.2023;17:00;<7;<10;89;11
17.05.2023;18:00;<7;<10;90;12
17.05.2023;19:00;<7;<10;88;12
17.05.2023;20:00;<7;<10;83;12
17.05.2023;21:00;<7;<10;75;13
17.05.2023;22:00;<7;<10;73;13
17.05.2023;23:00;<7;<10;;14
17.05.2023;24:00;<7;<10;65;14
18.05.2023;01:00;<7;<10;56;14
18.05.2023;02:00;<7;<10;56;14
18.05.2023;03:00;<7;<10;54;14
18.05.2023;04:00;<7;<10;42;14
18.05.2023;05:00;<7;<10;38;14
18.05.2023;06:00;<7;<10;43;14
18.05.2023;07:00;<7;<10;55;13
18.05.2023;08:00;<7;<10;67;13
18.05.2023;09:00;<7;<10;76;13
18.05.2023;10:00;<7;<10;79;13
18.05.2023;11:00;<7;<10;80;14
18.05.2023;12:00;<7;<10;83;14
18.05.2023;13:00;<7;<10;87;14
18.05.2023;14:00;<7;<10;87;14
18.05.2023;15:00;<7;<10;91;14
18.05.2023;16:00;<7;<10;94;14
18.05.2023;17:00;<7;<10;96;14
18.05.2023;18:00;<7;<10;97;13
18.05.2023;19:00;<7;<10;95;13
18.05.2023;20:00;<7;<10;91;13
18.05.2023;21:00;<7;<10;82;13
18.05.2023;22:00;<7;<10;73;13
18.05.2023;23:00;<7;<10;65;13
18.05.2023;24:00;<7;<10;;13
19.05.2023;01:00;<7;<10;65;13
19.05.2023;02:00;<7;<10;62;13
19.05.2023;03:00;<7;<10;57;13
19.05.2023;04:00;<7;<10;50;13
19.05.2023;05:00;<7;<10;43;13
19.05.2023;06:00;<7;<10;40;14
19.05.2023;07:00;<7;<10;44;14
19.05.2023;08:00;<7;<10;54;14
19.05.2023;09:00;<7;<10;70;14
19.05.2023;10:00;<7;<10;82;14
19.05.2023;11:00;<7;<10;87;14
19.05.2023;12:00;<7;<10;91;14
19.05.2023;13:00;<7;<10;95;13
19.05.2023;14:00;<7;<10;99;13
19.05.2023;15:00;<7;<10;104;13
19.05.2023;16:00;<7;<10;106;14
19.05.2023;17:00;<7;<10;107;14
19.05.2023;18:00;<7;<10;110;14
19.05.2023;19:00;<7;<10;112;14
19.05.2023;20:00;<7;<10;109;14
19.05.2023;21:00;<7;<10;99;14
19.05.2023;22:00;<7;<10;83;14
19.05.2023;23:00;<7;17;65;14
19.05.2023;24:00;<7;11;69;14
20.05.2023;01:00;<7;<10;;14
20.05.2023;02:00;<7;<10;64;14
20.05.2023;03:00;<7;<10;57;14
20.05.2023;04:00;<7;<10;55;14
20.05.2023;05:00;<7;<10;52;14
20.05.2023;06:00;<7;<10;48;14
20.05.2023;07:00;<7;<10;55;13
20.05.2023;08:00;<7;<10;61;13
20.05.2023;09:00;<7;<10;71;13
20.05.2023;10:00;<7;<10;81;14
20.05.2023;11:00;<7;<10;80;14
20.05.2023;12:00;<7;<10;82;14
20.05.2023;13:00;<7;<10;92;14
20.05.2023;14:00;<7;<10;98;14
20.05.2023;15:00;<7;<10;99;14
20.05.2023;16:00;<7;<10;98;13
20.05.2023;17:00;<7;<10;96;13
20.05.2023;18:00;<7;<10;95;13
20.05.2023;19:00;<7;<10;92;13
20.05.2023;20:00;<7;<10;86;13
20.05.2023;21:00;<7;<10;80;13
20.05.2023;22:00;<7;<10;75;13
20.05.2023;23:00;<7;<10;72;13
20.05.2023;24:00;<7;<10;68;13
21.05.2023;01:00;<7;<10;63;13
21.05.2023;02:00;<7;<10;;13
21.05.2023;03:00;<7;<10;57;13
21.05.2023;04:00;<7;<10;52;13
21.05.2023;05:00;<7;<10;49;13
21.05.2023;06:00;<7;<10;47;13
21.05.2023;07:00;<7;<10;46;14
21.05.2023;08:00;<7;<10;48;14
21.05.2023;09:00;<7;<10;51;14
21.05.2023;10:00;<7;<10;54;14
21.05.2023;11:00;<7;<10;60;14
21.05.2023;12:00;<7;<10;66;14
21.05.2023;13:00;<7;<10;73;15
21.05.2023;14:00;<7;<10;81;15
21.05.2023;15:00;<7;<10;90;16
21.05.2023;16:00;<7;<10;96;16
21.05.2023;17:00;<7;<10;99;17
21.05.2023;18:00;<7;<10;100;17
21.05.2023;19:00;<7;<10;99;18
21.05.2023;20:00;<7;<10;92;19
21.05.2023;21:00;<7;<10;82;19
21.05.2023;22:00;<7;<10;79;20
21.05.2023;23:00;<7;<10;61;21
21.05.2023;24:00;<7;<10;41;21
22.05.2023;01:00;<7;<10;33;22
22.05.2023;02:00;<7;<10;33;22
22.05.2023;03:00;<7;<10;;22
22.05.2023;04:00;<7;<10;38;23
22.05.2023;05:00;<7;10;35;24
22.05.2023;06:00;11;20;13;24
22.05.2023;07:00;14;24;13;25
22.05.2023;08:00;<7;12;40;25
22.05.2023;09:00;<7;<10;65;25
22.05.2023;10:00;<7;<10;77;25
22.05.2023;11:00;<7;<10;87;26
22.05.2023;12:00;;;;26
22.05.2023;13:00;<7;<10;117;26
22.05.2023;14:00;<7;<10;120;26
22.05.2023;15:00;<7;<10;120;26
22.05.2023;16:00;<7;<10;120;26
22.05.2023;17:00;<7;<10;113;
22.05.2023;18:00;<7;<10;106;
22.05.2023;19:00;<7;<10;98;
22.05.2023;20:00;<7;<10;103;
22.05.2023;21:00;<7;<10;107;
22.05.2023;22:00;<7;<10;102;
22.05.2023;23:00;<7;<10;98;
22.05.2023;24:00;<7;<10;101;
23.05.2023;01:00;<7;<10;101;
23.05.2023;02:00;<7;<10;98;
23.05.2023;03:00;<7;<10;96;
23.05.2023;04:00;<7;<10;96;
23.05.2023;05:00;<7;<10;90;
23.05.2023;06:00;<7;<10;89;
23.05.2023;07:00;<7;<10;91;
23.05.2023;08:00;<7;<10;88;
23.05.2023;09:00;<7;<10;75;
23.05.2023;10:00;<7;<10;73;
23.05.2023;11:00;<7;<10;78;
23.05.2023;12:00;<7;<10;75;
23.05.2023;13:00;;;82;
23.05.2023;14:00;<7;<10;85;13
23.05.2023;15:00;<7;<10;86;13
23.05.2023;16:00;<7;<10;83;13
23.05.2023;17:00;<7;<10;85;13
23.05.2023;18:00;<7;<10;86;14
23.05.2023;19:00;<7;<10;86;14
23.05.2023;20:00;<7;<10;85;14
23.05.2023;21:00;<7;<10;79;14
23.05.2023;22:00;<7;<10;77;14
23.05.2023;23:00;<7;<10;;14
23.05.2023;24:00;<7;<10;65;14
24.05.2023;01:00;<7;<10;58;14
24.05.2023;02:00;<7;<10;57;14
24.05.2023;03:00;<7;<10;47;14
24.05.2023;04:00;<7;<10;37;14
24.05.2023;05:00;<7;21;17;15
24.05.2023;06:00;11;24;12;16
24.05.2023;07:00;<7;14;36;16
24.05.2023;08:00;<7;<10;52;16
24.05.2023;09:00;<7;<10;67;16
24.05.2023;10:00;<7;<10;73;16
24.05.2023;11:00;<7;<10;77;17
24.05.2023;12:00;<7;<10;78;17
24.05.2023;13:00;<7;<10;76;17
24.05.2023;14:00;;;80;17
24.05.2023;15:00;<7;<10;81;17
24.05.2023;16:00;<7;<10;84;17
24.05.2023;17:00;<7;<10;85;17
24.05.2023;18:00;<7;<10;85;17
24.05.2023;19:00;<7;<10;84;17
24.05.2023;20:00;<7;<10;81;17
24.05.2023;21:00;<7;<10;73;17
24.05.2023;22:00;<7;<10;57;17
24.05.2023;23:00;<7;<10;42;17
24.05.2023;24:00;<7;<10;;17
25.05.2023;01:00;<7;<10;40;17
25.05.2023;02:00;<7;<10;37;17
25.05.2023;03:00;<7;<10;42;17
25.05.2023;04:00;<7;<10;32;17
25.05.2023;05:00;<7;11;25;16
25.05.2023;06:00;<7;12;29;14
25.05.2023;07:00;<7;<10;47;14
25.05.2023;08:00;<7;<10;71;14
25.05.2023;09:00;<7;<10;75;14
25.05.2023;10:00;<7;<10;76;14
25.05.2023;11:00;<7;<10;78;14
25.05.2023;12:00;<7;<10;80;14
25.05.2023;13:00;<7;<10;83;13
25.05.2023;14:00;<7;<10;86;13
25.05.2023;15:00;;;88;13
25.05.2023;16:00;<7;<10;90;13
25.05.2023;17:00;<7;<10;94;13
25.05.2023;18:00;<7;<10;96;14
25.05.2023;19:00;<7;<10;94;14
25.05.2023;20:00;<7;<10;89;15
25.05.2023;21:00;<7;<10;84;15
25.05.2023;22:00;<7;<10;79;15
25.05.2023;23:00;<7;<10;74;16
25.05.2023;24:00;<7;<10;71;16
26.05.2023;01:00;<7;<10;;16
26.05.2023;02:00;<7;<10;68;17
26.05.2023;03:00;<7;<10;64;17
26.05.2023;04:00;<7;<10;62;18
26.05.2023;05:00;<7;<10;57;18
26.05.2023;06:00;<7;<10;58;18
26.05.2023;07:00;<7;<10;61;19
26.05.2023;08:00;<7;<10;68;19
26.05.2023;09:00;<7;<10;73;19
26.05.2023;10:00;<7;<10;73;20
26.05.2023;11:00;<7;<10;75;20
26.05.2023;12:00;<7;<10;80;21
26.05.2023;13:00;<7;<10;86;21
26.05.2023;14:00;<7;<10;87;21
26.05.2023;15:00;<7;<10;90;22
26.05.2023;16:00;;;95;22
26.05.2023;17:00;<7;<10;103;22
26.05.2023;18:00;<7;<10;101;22
26.05.2023;19:00;<7;<10;98;21
26.05.2023;20:00;<7;<10;88;21
26.05.2023;21:00;<7;<10;78;21
26.05.2023;22:00;<7;<10;71;21
26.05.2023;23:00;<7;<10;64;20
26.05.2023;24:00;<7;<10;65;20
27.05.2023;01:00;<7;<10;62;20
27.05.2023;02:00;<7;<10;;20
27.05.2023;03:00;<7;<10;63;20
27.05.2023;04:00;<7;<10;62;19
27.05.2023;05:00;<7;<10;52;19
27.05.2023;06:00;<7;<10;52;19
27.05.2023;07:00;<7;<10;53;18
27.05.2023;08:00;<7;<10;60;18
27.05.2023;09:00;<7;<10;68;18
27.05.2023;10:00;<7;<10;76;18
27.05.2023;11:00;<7;<10;85;18
27.05.2023;12:00;<7;<10;95;17
27.05.2023;13:00;<7;<10;98;17
27.05.2023;14:00;<7;<10;101;17
27.05.2023;15:00;<7;<10;104;17
27.05.2023;16:00;<7;<10;107;17
27.05.2023;17:00;;;110;17
27.05.2023;18:00;<7;<10;112;17
27.05.2023;19:00;<7;<10;109;17
27.05.2023;20:00;<7;<10;102;17
27.05.2023;21:00;<7;11;82;16
27.05.2023;22:00;<7;16;63;16
27.05.2023;23:00;<7;11;58;16
27.05.2023;24:00;<7;11;53;16
28.05.2023;01:00;<7;13;42;16
28.05.2023;02:00;<7;13;40;16
28.05.2023;03:00;<7;13;;16
28.05.2023;04:00;<7;11;46;16
28.05.2023;05:00;<7;12;46;16
28.05.2023;06:00;<7;13;45;17
28.05.2023;07:00;<7;11;45;17
28.05.2023;08:00;<7;<10;54;17
28.05.2023;09:00;<7;<10;73;16
28.05.2023;10:00;<7;<10;85;16
28.05.2023;11:00;<7;<10;95;16
28.05.2023;12:00;<7;<10;93;16
28.05.2023;13:00;<7;<10;98;16
28.05.2023;14:00;<7;<10;104;15
28.05.2023;15:00;<7;<10;108;15
28.05.2023;16:00;<7;<10;113;15
28.05.2023;17:00;<7;<10;116;15
28.05.2023;18:00;;;117;15
28.05.2023;19:00;<7;<10;114;15
28.05.2023;20:00;<7;<10;110;15
28.05.2023;21:00;<7;<10;92;15
28.05.2023;22:00;<7;<10;81;15
28.05.2023;23:00;<7;<10;75;15
28.05.2023;24:00;<7;<10;70;14
29.05.2023;01:00;<7;<10;63;14
29.05.2023;02:00;<7;<10;66;14
29.05.2023;03:00;<7;<10;71;14
29.05.2023;04:00;<7;<10;;14
29.05.2023;05:00;<7;<10;65;14
29.05.2023;06:00;<7;<10;62;14
29.05.2023;07:00;<7;<10;62;13
29.05.2023;08:00;<7;<10;65;13
29.05.2023;09:00;<7;<10;67;13
29.05.2023;10:00;<7;<10;69;13
29.05.2023;11:00;<7;<10;74;13
29.05.2023;12:00;<7;<10;79;13
29.05.2023;13:00;<7;<10;84;13
29.05.2023;14:00;<7;<10;90;13
29.05.2023;15:00;<7;<10;97;13
29.05.2023;16:00;<7;<10;99;13
29.05.2023;17:00;<7;<10;100;13
29.05.2023;18:00;<7;<10;100;13
29.05.2023;19:00;;;97;13
29.05.2023;20:00;<7;<10;93;13
29.05.2023;21:00;<7;<10;87;13
29.05.2023;22:00;<7;<10;81;13
29.05.2023;23:00;<7;<10;78;13
29.05.2023;24:00;<7;<10;73;13
30.05.2023;01:00;<7;<10;70;14
30.05.2023;02:00;<7;<10;67;14
30.05.2023;03:00;<7;<10;65;14
30.05.2023;04:00;<7;<10;61;14
30.05.2023;05:00;<7;<10;;14
30.05.2023;06:00;<7;<10;72;15
30.05.2023;07:00;<7;<10;77;15
30.05.2023;08:00;<7;<10;81;15
30.05.2023;09:00;<7;<10;81;15
30.05.2023;10:00;<7;<10;84;15
30.05.2023;11:00;<7;<10;89;15
30.05.2023;12:00;<7;<10;94;15
30.05.2023;13:00;<7;<10;96;15
30.05.2023;14:00;<7;<10;97;16
30.05.2023;15:00;<7;<10;97;16
30.05.2023;16:00;<7;<10;93;16
30.05.2023;17:00;<7;<10;82;16
30.05.2023;18:00;<7;<10;72;16
30.05.2023;19:00;<7;<10;67;15
30.05.2023;20:00;;;64;15
30.05.2023;21:00;<7;<10;64;15
30.05.2023;22:00;<7;<10;60;15
30.05.2023;23:00;<7;<10;58;15
30.05.2023;24:00;<7;<10;54;15
31.05.2023;01:00;<7;<10;54;15
31.05.2023;02:00;<7;<10;49;15
31.05.2023;03:00;<7;<10;43;14
31.05.2023;04:00;<7;<10;38;14
31.05.2023;05:00;<7;10;31;14
31.05.2023;06:00;<7;11;;14
31.05.2023;07:00;<7;10;35;14
31.05.2023;08:00;<7;<10;46;14
31.05.2023;09:00;<7;<10;56;14
31.05.2023;10:00;<7;<10;71;14
31.05.2023;11:00;<7;<10;85;14
31.05.2023;12:00;<7;<10;94;14
31.05.2023;13:00;<7;<10;98;14
31.05.2023;14:00;<7;<10;101;14
31.05.2023;15:00;<7;<10;105;14
31.05.2023;16:00;<7;<10;106;14
31.05.2023;17:00;<7;<10;108;14
31.05.2023;18:00;<7;<10;110;14
31.05.2023;19:00;<7;<10;112;14
31.05.2023;20:00;<7;<10;110;14
31.05.2023;21:00;;;97;14
31.05.2023;22:00;<7;<10;77;14
31.05.2023;23:00;<7;<10;73;14
31.05.2023;24:00;<7;<10;71;14
01.06.2023;01:00;<7;<10;65;14
01.06.2023;02:00;<7;<10;62;14
01.06.2023;03:00;<7;<10;64;15
01.06.2023;04:00;<7;<10;67;15
01.06.2023;05:00;<7;<10;72;15
01.06.2023;06:00;<7;<10;75;14
01.06.2023;07:00;<7;<10;;14
01.06.2023;08:00;<7;<10;80;14
01.06.2023;09:00;<7;<10;81;14
01.06.2023;10:00;<7;<10;80;14
01.06.2023;11:00;<7;<10;74;14
01.06.2023;12:00;<7;<10;72;14
01.06.2023;13:00;<7;<10;72;14
01.06.2023;14:00;<7;<10;77;14
01.06.2023;15:00;<7;<10;89;14
01.06.2023;16:00;<7;<10;98;15
01.06.2023;17:00;<7;<10;74;15
01.06.2023;18:00;<7;<10;75;15
01.06.2023;19:00;<7;<10;81;15
01.06.2023;20:00;<7;<10;80;15
01.06.2023;21:00;<7;<10;79;15
01.06.2023;22:00;;;79;15
01.06.2023;23:00;<7;<10;77;15
01.06.2023;24:00;<7;<10;78;15
02.06.2023;01:00;<7;<10;82;15
02.06.2023;02:00;<7;<10;85;15
02.06.2023;03:00;<7;<10;84;15
02.06.2023;04:00;<7;<10;87;15
02.06.2023;05:00;<7;<10;86;15
02.06.2023;06:00;<7;<10;87;15
02.06.2023;07:00;<7;<10;86;15
02.06.2023;08:00;<7;<10;82;15
02.06.2023;09:00;<7;<10;80;16
02.06.2023;10:00;<7;<10;79;16
02.06.2023;11:00;<7;<10;77;16
02.06.2023;12:00;<7;<10;78;16
02.06.2023;13:00;<7;<10;78;16
02.06.2023;14:00;<7;<10;80;17
02.06.2023;15:00;<7;<10;85;17
02.06.2023;16:00;<7;<10;90;18
02.06.2023;17:00;<7;<10;92;18
02.06.2023;18:00;<7;<10;94;18
02.06.2023;19:00;<7;<10;95;18
02.06.2023;20:00;<7;<10;95;18
02.06.2023;21:00;<7;<10;78;19
02.06.2023;22:00;<7;15;56;19
02.06.2023;23:00;;;;20
02.06.2023;24:00;<7;<10;56;20
03.06.2023;01:00;<7;<10;53;20
03.06.2023;02:00;<7;<10;55;20
03.06.2023;03:00;<7;<10;58;19
03.06.2023;04:00;<7;<10;55;19
03.06.2023;05:00;<7;<10;54;19
03.06.2023;06:00;<7;<10;52;19
03.06.2023;07:00;<7;<10;54;19
03.06.2023;08:00;<7;<10;64;18
03.06.2023;09:00;<7;<10;73;18
03.06.2023;10:00;<7;<10;76;18
03.06.2023;11:00;<7;<10;84;18
03.06.2023;12:00;<7;<10;88;18
03.06.2023;13:00;<7;<10;92;18
03.06.2023;14:00;<7;<10;92;18
03.06.2023;15:00;<7;<10;92;17
03.06.2023;16:00;<7;<10;96;16
03.06.2023;17:00;<7;<10;99;16
03.06.2023;18:00;<7;<10;102;16
03.06.2023;19:00;<7;<10;101;15
03.06.2023;20:00;<7;<10;99;15
03.06.2023;21:00;<7;<10;84;14
03.06.2023;22:00;<7;<10;63;14
03.06.2023;23:00;<7;15;53;14
03.06.2023;24:00;;;;13
04.06.2023;01:00;<7;<10;67;13
04.06.2023;02:00;<7;<10;67;13
04.06.2023;03:00;<7;<10;61;13
04.06.2023;04:00;<7;<10;60;13
04.06.2023;05:00;<7;<10;58;13
04.06.2023;06:00;<7;<10;56;13
04.06.2023;07:00;<7;<10;57;13
04.06.2023;08:00;<7;<10;61;13
04.06.2023;09:00;<7;<10;71;12
04.06.2023;10:00;<7;<10;87;12
04.06.2023;11:00;<7;<10;93;12
04.06.2023;12:00;<7;<10;97;11
04.06.2023;13:00;<7;<10;103;11
04.06.2023;14:00;<7;<10;106;10
04.06.2023;15:00;<7;<10;108;10
04.06.2023;16:00;<7;<10;110;<10
04.06.2023;17:00;<7;<10;111;<10
04.06.2023;18:00;<7;<10;113;<10
04.06.2023;19:00;<7;<10;114;<10
04.06.2023;20:00;<7;<10;109;<10
04.06.2023;21:00;<7;<10;96;<10
04.06.2023;22:00;<7;<10;81;<10
04.06.2023;23:00;<7;<10;75;<10
04.06.2023;24:00;<7;<10;74;<10
05.06.2023;01:00;;;;<10
05.06.2023;02:00;<7;<10;63;<10
05.06.2023;03:00;<7;<10;59;<10
05.06.2023;04:00;<7;<10;56;<10
05.06.2023;05:00;<7;<10;52;<10
05.06.2023;06:00;<7;<10;50;<10
05.06.2023;07:00;<7;<10;52;<10
05.06.2023;08:00;<7;<10;52;<10
05.06.2023;09:00;<7;<10;57;10
05.06.2023;10:00;<7;<10;61;10
05.06.2023;11:00;<7;<10;71;11
05.06.2023;12:00;<7;<10;84;11
05.06.2023;13:00;<7;<10;95;11
05.06.2023;14:00;<7;<10;104;11
05.06.2023;15:00;<7;<10;111;11
05.06.2023;16:00;<7;<10;114;11
05.06.2023;17:00;<7;<10;116;12
05.06.2023;18:00;<7;<10;118;12
05.06.2023;19:00;<7;<10;119;12
05.06.2023;20:00;<7;<10;112;12
05.06.2023;21:00;<7;<10;95;12
05.06.2023;22:00;<7;<10;84;12
05.06.2023;23:00;<7;<10;79;13
05.06.2023;24:00;<7;<10;72;13
06.06.2023;01:00;<7;<10;68;13
06.06.2023;02:00;;;;13
06.06.2023;03:00;<7;<10;59;13
06.06.2023;04:00;<7;<10;54;13
06.06.2023;05:00;<7;<10;52;13
06.06.2023;06:00;<7;<10;52;13
06.06.2023;07:00;<7;<10;55;13
06.06.2023;08:00;<7;<10;58;13
06.06.2023;09:00;<7;<10;60;13
06.06.2023;10:00;<7;<10;65;13
06.06.2023;11:00;<7;<10;75;14
06.06.2023;12:00;<7;<10;86;14
06.06.2023;13:00;<7;<10;97;14
06.06.2023;14:00;<7;<10;110;14
06.06.2023;15:00;<7;<10;116;14
06.06.2023;16:00;<7;<10;120;15
06.06.2023;17:00;<7;<10;121;15
06.06.2023;18:00;<7;<10;119;15
06.06.2023;19:00;<7;<10;116;16
06.06.2023;20:00;<7;<10;108;16
06.06.2023;21:00;<7;<10;96;16
06.06.2023;22:00;<7;<10;90;16
06.06.2023;23:00;<7;<10;83;16
06.06.2023;24:00;<7;<10;80;17
07.06.2023;01:00;<7;<10;75;17
07.06.2023;02:00;<7;<10;67;17
07.06.2023;03:00;;;;17
07.06.2023;04:00;<7;<10;62;17
07.06.2023;05:00;<7;<10;57;18
07.06.2023;06:00;<7;<10;52;18
07.06.2023;07:00;<7;<10;55;18
07.06.2023;08:00;<7;<10;58;18
07.06.2023;09:00;<7;<10;57;18
07.06.2023;10:00;<7;<10;57;18
07.06.2023;11:00;<7;<10;58;18
07.06.2023;12:00;<7;<10;61;18
07.06.2023;13:00;<7;<10;69;19
07.06.2023;14:00;<7;<10;82;19
07.06.2023;15:00;<7;<10;102;19
07.06.2023;16:00;<7;<10;115;19
07.06.2023;17:00;<7;<10;120;19
07.06.2023;18:00;<7;<10;121;19
07.06.2023;19:00;<7;<10;120;19
07.06.2023;20:00;<7;<10;118;19
07.06.2023;21:00;<7;<10;108;19
07.06.2023;22:00;<7;<10;93;19
07.06.2023;23:00;<7;<10;81;19
07.06.2023;24:00;<7;<10;69;20
08.06.2023;01:00;<7;<10;64;20
08.06.2023;02:00;<7;<10;61;20
08.06.2023;03:00;<7;<10;57;20
08.06.2023;04:00;;;;20
08.06.2023;05:00;<7;<10;55;20
08.06.2023;06:00;<7;<10;54;20
08.06.2023;07:00;<7;<10;54;20
08.06.2023;08:00;<7;<10;52;20
08.06.2023;09:00;<7;<10;52;20
08.06.2023;10:00;<7;<10;60;20
08.06.2023;11:00;<7;<10;69;21
08.06.2023;12:00;<7;<10;83;21
08.06.2023;13:00;<7;<10;95;21
08.06.2023;14:00;<7;<10;108;20
08.06.2023;15:00;<7;<10;118;21
08.06.2023;16:00;<7;<10;125;21
08.06.2023;17:00;<7;<10;129;21
08.06.2023;18:00;<7;<10;130;20
08.06.2023;19:00;<7;<10;131;20
08.06.2023;20:00;<7;<10;129;20
08.06.2023;21:00;<7;<10;123;20
08.06.2023;22:00;<7;<10;117;21
08.06.2023;23:00;<7;<10;101;21
08.06.2023;24:00;<7;<10;91;21
09.06.2023;01:00;<7;<10;82;20
09.06.2023;02:00;<7;<10;73;20
09.06.2023;03:00;<7;<10;64;20
09.06.2023;04:00;<7;<10;56;20
09.06.2023;05:00;;;;20
09.06.2023;06:00;<7;<10;47;20
09.06.2023;07:00;<7;<10;47;20
09.06.2023;08:00;<7;<10;62;20
09.06.2023;09:00;<7;<10;90;20
09.06.2023;10:00;<7;<10;109;20
09.06.2023;11:00;<7;<10;123;21
09.06.2023;12:00;<7;<10;130;21
09.06.2023;13:00;<7;<10;133;22
09.06.2023;14:00;<7;<10;136;22
09.06.2023;15:00;<7;<10;139;22
09.06.2023;16:00;<7;<10;137;24
09.06.2023;17:00;<7;<10;137;24
09.06.2023;18:00;<7;<10;138;24
09.06.2023;19:00;<7;<10;138;25
09.06.2023;20:00;<7;<10;140;25
09.06.2023;21:00;<7;<10;131;25
09.06.2023;22:00;<7;<10;119;25
09.06.2023;23:00;<7;<10;109;25
09.06.2023;24:00;<7;<10;88;25
10.06.2023;01:00;<7;<10;93;25
10.06.2023;02:00;<7;<10;95;26
10.06.2023;03:00;<7;<10;89;26
10.06.2023;04:00;<7;<10;87;26
10.06.2023;05:00;<7;<10;85;26
10.06.2023;06:00;;;;26
10.06.2023;07:00;<7;<10;82;26
10.06.2023;08:00;<7;<10;87;26
10.06.2023;09:00;<7;<10;98;26
10.06.2023;10:00;<7;<10;106;25
10.06.2023;11:00;<7;<10;114;25
10.06.2023;12:00;<7;<10;123;24
10.06.2023;13:00;<7;<10;130;24
10.06.2023;14:00;<7;<10;136;24
10.06.2023;15:00;<7;<10;139;23
10.06.2023;16:00;<7;<10;141;22
10.06.2023;17:00;<7;<10;141;22
10.06.2023;18:00;<7;<10;142;22
10.06.2023;19:00;<7;<10;138;21
10.06.2023;20:00;<7;<10;133;21
10.06.2023;21:00;<7;<10;125;21
10.06.2023;22:00;<7;<10;112;21
10.06.2023;23:00;<7;<10;107;22
10.06.2023;24:00;<7;<10;91;22
11.06.2023;01:00;<7;<10;96;22
11.06.2023;02:00;<7;<10;101;22
11.06.2023;03:00;<7;<10;99;22
11.06.2023;04:00;<7;<10;98;22
11.06.2023;05:00;<7;<10;95;22
11.06.2023;06:00;<7;<10;93;22
11.06.2023;07:00;;;;22
11.06.2023;08:00;<7;<10;94;22
11.06.2023;09:00;<7;<10;98;23
11.06.2023;10:00;<7;<10;114;23
11.06.2023;11:00;<7;<10;122;23
11.06.2023;12:00;<7;<10;128;23
11.06.2023;13:00;<7;<10;133;23
11.06.2023;14:00;<7;<10;134;23
11.06.2023;15:00;<7;<10;135;23
11.06.2023;16:00;<7;<10;136;23
11.06.2023;17:00;<7;<10;137;24
11.06.2023;18:00;<7;<10;136;24
11.06.2023;19:00;<7;<10;132;24
11.06.2023;20:00;<7;<10;127;24
11.06.2023;21:00;<7;<10;119;24
11.06.2023;22:00;<7;<10;114;23
11.06.2023;23:00;<7;<10;111;23
11.06.2023;24:00;<7;<10;110;22
12.06.2023;01:00;<7;<10;108;22
12.06.2023;02:00;<7;<10;97;22
12.06.2023;03:00;<7;<10;82;22
12.06.2023;04:00;<7;<10;82;22
12.06.2023;05:00;<7;<10;75;22
12.06.2023;06:00;<7;14;66;22
12.06.2023;07:00;<7;<10;81;22
12.06.2023;08:00;;;97;22
12.06.2023;09:00;<7;<10;104;22
12.06.2023;10:00;<7;<10;114;22
12.06.2023;11:00;<7;<10;124;23
12.06.2023;12:00;<7;<10;129;23
12.06.2023;13:00;<7;<10;132;23
12.06.2023;14:00;<7;<10;133;23
12.06.2023;15:00;<7;<10;135;24
12.06.2023;16:00;<7;<10;134;24
12.06.2023;17:00;<7;<10;135;25
12.06.2023;18:00;<7;<10;137;25
12.06.2023;19:00;<7;<10;135;25
12.06.2023;20:00;<7;<10;127;25
12.06.2023;21:00;<7;<10;120;26
12.06.2023;22:00;<7;<10;118;26
12.06.2023;23:00;<7;<10;;26
12.06.2023;24:00;<7;<10;108;26
13.06.2023;01:00;<7;<10;105;26
13.06.2023;02:00;<7;<10;92;26
13.06.2023;03:00;<7;<10;76;26
13.06.2023;04:00;<7;<10;86;26
13.06.2023;05:00;<7;<10;81;26
13.06.2023;06:00;<7;14;80;27
13.06.2023;07:00;<7;11;87;27
13.06.2023;08:00;<7;<10;98;27
13.06.2023;09:00;;;108;27
13.06.2023;10:00;<7;<10;117;28
13.06.2023;11:00;<7;<10;123;27
13.06.2023;12:00;<7;<10;128;27
13.06.2023;13:00;<7;<10;133;27
13.06.2023;14:00;<7;<10;136;27
13.06.2023;15:00;<7;<10;140;27
13.06.2023;16:00;<7;<10;142;26
13.06.2023;17:00;<7;<10;142;26
13.06.2023;18:00;<7;<10;142;26
13.06.2023;19:00;<7;<10;145;26
13.06.2023;20:00;<7;<10;146;26
13.06.2023;21:00;<7;<10;135;25
13.06.2023;22:00;<7;<10;104;26
13.06.2023;23:00;<7;<10;92;27
13.06.2023;24:00;<7;<10;;27
14.06.2023;01:00;<7;<10;99;27
14.06.2023;02:00;<7;<10;88;27
14.06.2023;03:00;<7;<10;79;27
14.06.2023;04:00;<7;<10;76;27
14.06.2023;05:00;<7;<10;76;27
14.06.2023;06:00;<7;<10;78;27
14.06.2023;07:00;<7;<10;81;27
14.06.2023;08:00;<7;<10;86;26
14.06.2023;09:00;<7;<10;91;26
14.06.2023;10:00;;;98;26
14.06.2023;11:00;<7;<10;104;26
14.06.2023;12:00;<7;<10;102;26
14.06.2023;13:00;<7;<10;99;26
14.06.2023;14:00;<7;<10;101;26
14.06.2023;15:00;<7;<10;105;26
14.06.2023;16:00;<7;<10;110;25
14.06.2023;17:00;<7;<10;112;25
14.06.2023;18:00;<7;<10;112;25
14.06.2023;19:00;<7;<10;110;25
14.06.2023;20:00;<7;<10;104;25
14.06.2023;21:00;<7;<10;96;24
14.06.2023;22:00;<7;<10;76;24
14.06.2023;23:00;<7;<10;67;24
14.06.2023;24:00;<7;<10;58;23
15.06.2023;01:00;<7;12;;23
15.06.2023;02:00;<7;12;45;24
15.06.2023;03:00;<7;11;43;24
15.06.2023;04:00;<7;14;34;24
15.06.2023;05:00;<7;25;23;24
15.06.2023;06:00;<7;21;28;25
15.06.2023;07:00;<7;17;42;26
15.06.2023;08:00;<7;11;61;26
15.06.2023;09:00;<7;<10;84;26
15.06.2023;10:00;<7;<10;99;26
15.06.2023;11:00;;;111;26
15.06.2023;12:00;<7;<10;118;25
15.06.2023;13:00;<7;<10;122;24
15.06.2023;14:00;<7;<10;125;24
15.06.2023;15:00;<7;<10;128;24
15.06.2023;16:00;<7;<10;130;24
15.06.2023;17:00;<7;<10;132;23
15.06.2023;18:00;<7;<10;131;23
15.06.2023;19:00;<7;<10;125;23
15.06.2023;20:00;<7;<10;117;23
15.06.2023;21:00;<7;<10;108;23
15.06.2023;22:00;<7;<10;102;23
15.06.2023;23:00;<7;<10;92;22
15.06.2023;24:00;<7;<10;76;22
16.06.2023;01:00;<7;<10;68;22
16.06.2023;02:00;<7;<10;;22
16.06.2023;03:00;<7;<10;51;23
16.06.2023;04:00;<7;<10;45;23
16.06.2023;05:00;<7;16;37;22
16.06.2023;06:00;<7;21;32;21
16.06.2023;07:00;<7;17;53;21
16.06.2023;08:00;<7;13;75;21
16.06.2023;09:00;<7;<10;94;21
16.06.2023;10:00;<7;<10;107;20
16.06.2023;11:00;<7;<10;114;20
16.06.2023;12:00;;;116;20
16.06.2023;13:00;<7;<10;117;20
16.06.2023;14:00;<7;<10;117;20
16.06.2023;15:00;<7;<10;118;20
16.06.2023;16:00;<7;<10;120;20
16.06.2023;17:00;<7;<10;120;20
16.06.2023;18:00;<7;<10;123;20
16.06.2023;19:00;<7;<10;125;20
16.06.2023;20:00;<7;<10;121;20
16.06.2023;21:00;<7;<10;116;20
16.06.2023;22:00;<7;<10;104;19
16.06.2023;23:00;<7;<10;93;20
16.06.2023;24:00;<7;<10;89;19
17.06.2023;01:00;<7;<10;83;19
17.06.2023;02:00;<7;<10;75;19
17.06.2023;03:00;<7;<10;;19
17.06.2023;04:00;<7;10;59;18
17.06.2023;05:00;<7;15;46;18
17.06.2023;06:00;<7;15;44;18
17.06.2023;07:00;<7;16;69;18
17.06.2023;08:00;<7;<10;97;18
17.06.2023;09:00;<7;<10;107;18
17.06.2023;10:00;<7;<10;118;18
17.06.2023;11:00;<7;<10;127;18
17.06.2023;12:00;<7;<10;128;18
17.06.2023;13:00;;;127;18
17.06.2023;14:00;<7;<10;126;18
17.06.2023;15:00;<7;<10;127;18
17.06.2023;16:00;<7;<10;127;18
17.06.2023;17:00;<7;<10;124;18
17.06.2023;18:00;<7;<10;125;18
17.06.2023;19:00;<7;<10;122;18
17.06.2023;20:00;<7;<10;106;18
17.06.2023;21:00;<7;14;78;18
17.06.2023;22:00;<7;20;66;18
17.06.2023;23:00;<7;15;70;19
17.06.2023;24:00;<7;12;67;19
18.06.2023;01:00;<7;11;56;20
18.06.2023;02:00;<7;18;42;21
18.06.2023;03:00;<7;17;42;21
18.06.2023;04:00;<7;11;;22
18.06.2023;05:00;<7;11;60;22
18.06.2023;06:00;<7;<10;57;22
18.06.2023;07:00;<7;13;67;22
18.06.2023;08:00;<7;10;81;22
18.06.2023;09:00;<7;16;101;22
18.06.2023;10:00;<7;15;120;23
18.06.2023;11:00;<7;15;141;23
18.06.2023;12:00;<7;<10;165;23
18.06.2023;13:00;<7;<10;169;23
18.06.2023;14:00;;;172;23
18.06.2023;15:00;<7;<10;173;24
18.06.2023;16:00;<7;<10;166;24
18.06.2023;17:00;<7;<10;160;24
18.06.2023;18:00;<7;13;131;24
18.06.2023;19:00;<7;11;130;25
18.06.2023;20:00;<7;<10;126;25
18.06.2023;21:00;<7;<10;124;25
18.06.2023;22:00;<7;<10;111;25
18.06.2023;23:00;<7;<10;105;24
18.06.2023;24:00;<7;10;96;24
19.06.2023;01:00;<7;<10;94;24
19.06.2023;02:00;<7;11;91;24
19.06.2023;03:00;<7;12;90;23
19.06.2023;04:00;<7;17;74;23
19.06.2023;05:00;<7;15;;24